{"data":{"norad_id":65508,"epoch":"2026-05-25T03:29:01.775616Z","epoch_age_seconds":62192,"freshness":"FRESH","line1":"1 65508U 25198S   26145.14515944  .00028339  00000+0  84623-3 0  9990","line2":"2 65508  53.1595 275.3128 0001040  88.5303 271.5818 15.34417069 40336","mean_motion":15.34417069,"eccentricity":0.000104,"inclination_deg":53.1595,"raan_deg":275.3128,"arg_perigee_deg":88.5303,"mean_anomaly_deg":271.5818,"bstar":0.00084623,"rev_number":4033,"period_min":93.846714110034,"perigee_km":461.94106590344,"apogee_km":463.36395012111,"semimajor_km":6840.7895080123,"source":"CELESTRAK","updated_at":"2026-05-25T13:38:20.843058Z"}}